Location: Oberkirch
(48.5323°N, 8.0787°E)
Time: 17:58:07
(UTC+00:00)

Cosmos 1484 Rocket - Pass Details

Date: 08 November 2025
Orbit: 442 x 473 km, 97.6° (Epoch: 10 December)

Event Time Altitude Azimuth Distance (km) Brightness Sun altitude
Rises 04:56:50 0° 17° (NNE) 2,549 6.3 -14.8°
Reaches altitude 10° 04:58:57 10° 23° (NNE) 1,665 5.4 -14.4°
Maximum altitude 05:02:27 51° 100° (E) 609 3.5 -13.9°
Drops below altitude 10° 05:05:55 10° 178° (S) 1,645 5.4 -13.3°
Sets 05:07:59 0° 183° (S) 2,515 6.3 -13.0°
